Time,TemperatureF,DewpointF,PressureIn,WindDirection,WindDirectionDegrees,WindSpeedMPH,WindSpeedGustMPH,Humidity,HourlyPrecipIn,Conditions,Clouds,dailyrainin,SoftwareType,DateUTC
2013-08-15 00:01:00,58.6,53.8,30.11,NE,45,1.1,0.0,84,0.00,CLR,,0.00,WeatherDisplay:10.37,2013-08-15 04:01:00,
2013-08-15 00:02:00,58.5,53.6,30.11,NE,45,0.0,0.0,84,0.00,CLR,,0.00,WeatherDisplay:10.37,2013-08-15 04:02:00,
2013-08-15 00:03:00,58.5,53.6,30.11,East,90,1.1,0.0,84,0.00,CLR,,0.00,WeatherDisplay:10.37,2013-08-15 04:03:00,
2013-08-15 00:08:00,58.3,53.8,30.11,East,90,0.0,0.0,85,0.00,CLR,,0.00,WeatherDisplay:10.37,2013-08-15 04:08:00,
2013-08-15 00:13:00,58.1,53.9,30.11,SE,135,0.0,0.0,86,0.00,CLR,,0.00,WeatherDisplay:10.37,2013-08-15 04:13:00,
2013-08-15 00:18:00,58.1,54.2,30.11,SW,225,1.1,0.0,87,0.00,CLR,,0.00,WeatherDisplay:10.37,2013-08-15 04:18:00,
2013-08-15 00:23:00,58.1,54.2,30.11,SW,225,0.0,0.0,87,0.00,CLR,,0.00,WeatherDisplay:10.37,2013-08-15 04:23:00,
2013-08-15 00:28:00,58.1,54.2,30.12,SW,225,0.0,0.0,87,0.00,CLR,,0.00,WeatherDisplay:10.37,2013-08-15 04:28:00,
2013-08-15 00:33:00,58.1,54.6,30.12,SW,225,0.0,0.0,88,0.00,CLR,,0.00,WeatherDisplay:10.37,2013-08-15 04:33:00,
2013-08-15 00:38:00,58.1,54.6,30.12,SW,225,0.0,0.0,88,0.00,CLR,,0.00,WeatherDisplay:10.37,2013-08-15 04:38:00,
2013-08-15 00:43:00,57.9,54.4,30.12,SW,225,0.0,0.0,88,0.00,CLR,,0.00,WeatherDisplay:10.37,2013-08-15 04:43:00,
2013-08-15 00:45:00,57.9,54.4,30.12,SW,225,0.0,0.0,88,0.00,CLR,,0.00,WeatherDisplay:10.37,2013-08-15 04:45:00,
2013-08-15 00:50:00,57.9,54.4,30.13,SW,225,0.0,0.0,88,0.00,CLR,,0.00,WeatherDisplay:10.37,2013-08-15 04:50:00,
2013-08-15 00:55:00,57.7,54.2,30.12,SW,225,1.1,0.0,88,0.00,CLR,,0.00,WeatherDisplay:10.37,2013-08-15 04:55:00,
2013-08-15 01:00:00,57.4,53.9,30.12,SW,225,0.0,0.0,88,0.00,CLR,,0.00,WeatherDisplay:10.37,2013-08-15 05:00:00,
2013-08-15 01:05:00,57.4,54.5,30.13,SW,225,0.0,0.0,90,0.00,CLR,,0.00,WeatherDisplay:10.37,2013-08-15 05:05:00,
2013-08-15 01:10:00,57.2,54.3,30.13,SW,225,0.0,0.0,90,0.00,CLR,,0.00,WeatherDisplay:10.37,2013-08-15 05:10:00,
2013-08-15 01:15:00,57.0,54.4,30.13,SW,225,1.1,0.0,91,0.00,CLR,,0.00,WeatherDisplay:10.37,2013-08-15 05:15:00,
2013-08-15 01:20:00,57.0,54.4,30.13,SW,225,1.1,0.0,91,0.00,CLR,,0.00,WeatherDisplay:10.37,2013-08-15 05:20:00,
2013-08-15 01:25:00,57.0,54.4,30.12,SW,225,1.1,1.1,91,0.00,CLR,,0.00,WeatherDisplay:10.37,2013-08-15 05:25:00,
2013-08-15 01:30:00,57.0,54.4,30.12,West,270,3.5,3.5,91,0.00,CLR,,0.00,WeatherDisplay:10.37,2013-08-15 05:30:00,
2013-08-15 01:35:00,57.2,54.3,30.12,West,270,3.5,3.5,90,0.00,CLR,,0.00,WeatherDisplay:10.37,2013-08-15 05:35:00,
2013-08-15 01:40:00,57.4,54.5,30.12,SW,225,3.5,3.5,90,0.00,CLR,,0.00,WeatherDisplay:10.37,2013-08-15 05:40:00,
2013-08-15 01:45:00,57.6,54.3,30.12,SW,225,2.3,2.3,89,0.00,CLR,,0.00,WeatherDisplay:10.37,2013-08-15 05:45:00,
2013-08-15 01:50:00,57.6,54.3,30.13,SW,225,1.1,1.1,89,0.00,CLR,,0.00,WeatherDisplay:10.37,2013-08-15 05:50:00,
2013-08-15 01:55:00,57.4,54.2,30.12,SW,225,1.1,0.0,89,0.00,CLR,,0.00,WeatherDisplay:10.37,2013-08-15 05:55:00,
2013-08-15 02:00:00,57.4,54.2,30.13,SW,225,0.0,0.0,89,0.00,CLR,,0.00,WeatherDisplay:10.37,2013-08-15 06:00:00,
2013-08-15 02:05:00,57.2,54.3,30.12,SW,225,0.0,0.0,90,0.00,CLR,,0.00,WeatherDisplay:10.37,2013-08-15 06:05:00,
2013-08-15 02:10:00,57.0,53.8,30.12,SW,225,0.0,0.0,89,0.00,CLR,,0.00,WeatherDisplay:10.37,2013-08-15 06:10:00,
2013-08-15 02:15:00,56.7,53.8,30.12,SE,135,0.0,0.0,90,0.00,CLR,,0.00,WeatherDisplay:10.37,2013-08-15 06:15:00,
2013-08-15 02:20:00,56.3,53.4,30.13,SE,135,0.0,0.0,90,0.00,CLR,,0.00,WeatherDisplay:10.37,2013-08-15 06:20:00,
2013-08-15 02:25:00,56.1,53.2,30.12,SE,135,0.0,0.0,90,0.00,CLR,,0.00,WeatherDisplay:10.37,2013-08-15 06:25:00,
2013-08-15 02:30:00,55.9,53.6,30.12,SW,225,0.0,0.7,92,0.00,CLR,,0.00,WeatherDisplay:10.37,2013-08-15 06:30:00,
2013-08-15 02:35:00,55.9,53.9,30.12,SW,225,1.1,0.0,93,0.00,CLR,,0.00,WeatherDisplay:10.37,2013-08-15 06:35:00,
2013-08-15 02:40:00,55.9,53.9,30.12,SW,225,0.0,0.0,93,0.00,CLR,,0.00,WeatherDisplay:10.37,2013-08-15 06:40:00,
2013-08-15 02:45:00,55.6,53.6,30.13,SW,225,0.0,0.0,93,0.00,CLR,,0.00,WeatherDisplay:10.37,2013-08-15 06:45:00,
2013-08-15 02:50:00,55.6,53.6,30.13,East,90,0.0,0.0,93,0.00,CLR,,0.00,WeatherDisplay:10.37,2013-08-15 06:50:00,
2013-08-15 02:55:00,55.4,53.7,30.13,East,90,1.1,1.1,94,0.00,CLR,,0.00,WeatherDisplay:10.37,2013-08-15 06:55:00,
2013-08-15 03:00:00,55.2,53.5,30.13,East,90,1.1,0.0,94,0.00,CLR,,0.00,WeatherDisplay:10.37,2013-08-15 07:00:00,
2013-08-15 03:05:00,55.2,53.5,30.13,East,90,0.0,0.0,94,0.00,CLR,,0.00,WeatherDisplay:10.37,2013-08-15 07:05:00,
2013-08-15 03:10:00,55.2,53.5,30.13,SW,225,0.0,0.0,94,0.00,CLR,,0.00,WeatherDisplay:10.37,2013-08-15 07:10:00,
2013-08-15 03:15:00,55.0,53.6,30.14,SW,225,0.0,0.0,95,0.00,CLR,,0.00,WeatherDisplay:10.37,2013-08-15 07:15:00,
2013-08-15 03:20:00,55.0,53.6,30.14,SW,225,0.0,0.0,95,0.00,CLR,,0.00,WeatherDisplay:10.37,2013-08-15 07:20:00,
2013-08-15 03:25:00,54.9,53.5,30.13,SW,225,0.0,0.0,95,0.00,CLR,,0.00,WeatherDisplay:10.37,2013-08-15 07:25:00,
2013-08-15 03:30:00,54.7,53.3,30.14,SE,135,0.0,0.0,95,0.00,CLR,,0.00,WeatherDisplay:10.37,2013-08-15 07:30:00,
2013-08-15 03:35:00,54.5,53.4,30.14,SE,135,0.0,0.0,96,0.00,CLR,,0.00,WeatherDisplay:10.37,2013-08-15 07:35:00,
2013-08-15 03:40:00,54.3,53.2,30.14,SE,135,0.0,0.0,96,0.00,CLR,,0.00,WeatherDisplay:10.37,2013-08-15 07:40:00,
2013-08-15 03:45:00,54.1,53.0,30.14,SE,135,0.0,0.0,96,0.00,CLR,,0.00,WeatherDisplay:10.37,2013-08-15 07:45:00,
2013-08-15 03:50:00,54.1,53.0,30.14,SE,135,0.0,0.0,96,0.00,CLR,,0.00,WeatherDisplay:10.37,2013-08-15 07:50:00,
2013-08-15 03:55:00,54.0,52.8,30.14,SE,135,0.0,0.0,96,0.00,CLR,,0.00,WeatherDisplay:10.37,2013-08-15 07:55:00,
2013-08-15 04:00:00,54.0,53.1,30.14,SE,135,0.0,0.0,97,0.00,CLR,,0.00,WeatherDisplay:10.37,2013-08-15 08:00:00,
2013-08-15 04:05:00,53.8,52.9,30.14,SE,135,0.0,0.0,97,0.00,CLR,,0.00,WeatherDisplay:10.37,2013-08-15 08:05:00,
2013-08-15 04:10:00,53.6,52.8,30.14,SE,135,0.0,0.0,97,0.00,CLR,,0.00,WeatherDisplay:10.37,2013-08-15 08:10:00,
2013-08-15 04:15:00,53.8,53.2,30.14,SE,135,0.0,0.0,98,0.00,CLR,,0.00,WeatherDisplay:10.37,2013-08-15 08:15:00,
2013-08-15 04:20:00,53.6,53.0,30.14,SE,135,0.0,0.0,98,0.00,CLR,,0.00,WeatherDisplay:10.37,2013-08-15 08:20:00,
2013-08-15 04:25:00,53.8,53.2,30.14,SE,135,0.0,0.0,98,0.00,CLR,,0.00,WeatherDisplay:10.37,2013-08-15 08:25:00,
2013-08-15 04:30:00,53.6,53.0,30.14,SW,225,0.0,0.0,98,0.00,CLR,,0.00,WeatherDisplay:10.37,2013-08-15 08:30:00,
2013-08-15 04:35:00,53.6,53.0,30.14,SW,225,0.0,0.0,98,0.00,CLR,,0.00,WeatherDisplay:10.37,2013-08-15 08:35:00,
2013-08-15 04:40:00,53.6,53.3,30.14,SW,225,0.0,0.0,99,0.00,CLR,,0.00,WeatherDisplay:10.37,2013-08-15 08:40:00,
2013-08-15 04:45:00,53.4,53.1,30.14,SW,225,0.0,0.0,99,0.00,CLR,,0.00,WeatherDisplay:10.37,2013-08-15 08:45:00,
2013-08-15 04:50:00,53.2,53.0,30.14,SW,225,0.0,0.0,99,0.00,CLR,,0.00,WeatherDisplay:10.37,2013-08-15 08:50:00,
2013-08-15 04:55:00,53.1,52.8,30.14,SW,225,0.0,0.0,99,0.00,CLR,,0.00,WeatherDisplay:10.37,2013-08-15 08:55:00,
2013-08-15 05:00:00,53.1,52.8,30.14,SW,225,0.0,0.0,99,0.00,CLR,,0.00,WeatherDisplay:10.37,2013-08-15 09:00:00,
2013-08-15 05:05:00,52.9,52.6,30.14,SW,225,0.0,0.0,99,0.00,CLR,,0.00,WeatherDisplay:10.37,2013-08-15 09:05:00,
2013-08-15 05:10:00,52.7,52.4,30.14,SW,225,0.0,0.0,99,0.00,CLR,,0.00,WeatherDisplay:10.37,2013-08-15 09:10:00,
2013-08-15 05:15:00,52.5,52.2,30.14,SW,225,0.0,0.0,99,0.00,CLR,,0.00,WeatherDisplay:10.37,2013-08-15 09:15:00,
2013-08-15 05:20:00,52.5,52.2,30.14,SW,225,0.0,0.0,99,0.00,CLR,,0.00,WeatherDisplay:10.37,2013-08-15 09:20:00,
2013-08-15 05:25:00,52.5,52.2,30.14,SW,225,0.0,0.0,99,0.00,CLR,,0.00,WeatherDisplay:10.37,2013-08-15 09:25:00,
2013-08-15 05:30:00,52.3,52.1,30.14,SW,225,0.0,0.0,99,0.00,CLR,,0.00,WeatherDisplay:10.37,2013-08-15 09:30:00,
2013-08-15 05:35:00,52.3,52.1,30.14,SW,225,0.0,0.0,99,0.00,CLR,,0.00,WeatherDisplay:10.37,2013-08-15 09:35:00,
2013-08-15 05:40:00,52.3,52.1,30.14,SW,225,0.0,0.0,99,0.00,CLR,,0.00,WeatherDisplay:10.37,2013-08-15 09:40:00,
2013-08-15 05:45:00,52.3,52.1,30.14,SW,225,0.0,0.0,99,0.00,CLR,,0.00,WeatherDisplay:10.37,2013-08-15 09:45:00,
2013-08-15 05:50:00,52.3,52.1,30.14,SW,225,0.0,0.0,99,0.00,CLR,,0.00,WeatherDisplay:10.37,2013-08-15 09:50:00,
2013-08-15 05:55:00,52.2,51.9,30.14,SW,225,0.0,0.0,99,0.00,CLR,,0.00,WeatherDisplay:10.37,2013-08-15 09:55:00,
2013-08-15 06:00:00,52.0,51.7,30.14,SW,225,0.0,0.0,99,0.00,CLR,,0.00,WeatherDisplay:10.37,2013-08-15 10:00:00,
2013-08-15 06:05:00,52.0,51.7,30.15,SW,225,0.0,0.0,99,0.00,CLR,,0.00,WeatherDisplay:10.37,2013-08-15 10:05:00,
2013-08-15 06:10:00,52.0,51.7,30.15,SW,225,1.1,0.0,99,0.00,CLR,,0.00,WeatherDisplay:10.37,2013-08-15 10:10:00,
2013-08-15 06:15:00,52.0,51.7,30.15,SW,225,0.0,0.0,99,0.00,CLR,,0.00,WeatherDisplay:10.37,2013-08-15 10:15:00,
2013-08-15 06:20:00,51.8,51.5,30.15,SW,225,0.0,0.0,99,0.00,CLR,,0.00,WeatherDisplay:10.37,2013-08-15 10:20:00,
2013-08-15 06:25:00,51.8,51.5,30.15,SW,225,0.0,0.0,99,0.00,CLR,,0.00,WeatherDisplay:10.37,2013-08-15 10:25:00,
2013-08-15 06:30:00,51.6,51.3,30.16,SW,225,0.0,0.0,99,0.00,CLR,,0.00,WeatherDisplay:10.37,2013-08-15 10:30:00,
2013-08-15 06:35:00,51.6,51.3,30.15,SW,225,0.0,0.0,99,0.00,CLR,,0.00,WeatherDisplay:10.37,2013-08-15 10:35:00,
2013-08-15 06:40:00,51.6,51.3,30.16,SW,225,0.0,0.0,99,0.00,CLR,,0.00,WeatherDisplay:10.37,2013-08-15 10:40:00,
2013-08-15 06:45:00,51.6,51.3,30.16,SW,225,0.0,0.0,99,0.00,CLR,,0.00,WeatherDisplay:10.37,2013-08-15 10:45:00,
2013-08-15 06:50:00,51.6,51.3,30.16,SW,225,0.0,0.0,99,0.00,CLR,,0.00,WeatherDisplay:10.37,2013-08-15 10:50:00,
2013-08-15 06:55:00,51.6,51.3,30.16,SW,225,0.0,0.0,99,0.00,CLR,,0.00,WeatherDisplay:10.37,2013-08-15 10:55:00,
2013-08-15 07:00:00,51.8,51.5,30.16,SW,225,0.0,0.0,99,0.00,CLR,,0.00,WeatherDisplay:10.37,2013-08-15 11:00:00,
2013-08-15 07:05:00,51.8,51.5,30.17,SW,225,0.0,0.0,99,0.00,CLR,,0.00,WeatherDisplay:10.37,2013-08-15 11:05:00,
2013-08-15 07:10:00,52.2,51.9,30.17,SW,225,0.0,0.0,99,0.00,CLR,,0.00,WeatherDisplay:10.37,2013-08-15 11:10:00,
2013-08-15 07:15:00,53.8,53.5,30.17,SW,225,0.0,0.0,99,0.00,CLR,,0.00,WeatherDisplay:10.37,2013-08-15 11:15:00,
2013-08-15 07:20:00,55.2,54.9,30.17,SW,225,0.0,0.0,99,0.00,CLR,,0.00,WeatherDisplay:10.37,2013-08-15 11:20:00,
2013-08-15 07:25:00,55.2,54.9,30.17,East,90,0.0,0.0,99,0.00,CLR,,0.00,WeatherDisplay:10.37,2013-08-15 11:25:00,
2013-08-15 07:30:00,54.7,54.4,30.17,East,90,0.0,0.0,99,0.00,CLR,,0.00,WeatherDisplay:10.37,2013-08-15 11:30:00,
2013-08-15 07:35:00,54.5,54.2,30.17,East,90,0.0,0.0,99,0.00,CLR,,0.00,WeatherDisplay:10.37,2013-08-15 11:35:00,
2013-08-15 07:40:00,54.7,54.4,30.17,SW,225,0.0,0.0,99,0.00,CLR,,0.00,WeatherDisplay:10.37,2013-08-15 11:40:00,
2013-08-15 07:45:00,54.9,54.6,30.17,South,180,0.0,0.0,99,0.00,CLR,,0.00,WeatherDisplay:10.37,2013-08-15 11:45:00,
2013-08-15 07:50:00,55.6,55.3,30.17,SW,225,0.0,0.0,99,0.00,CLR,,0.00,WeatherDisplay:10.37,2013-08-15 11:50:00,
2013-08-15 07:55:00,58.5,58.2,30.17,SW,225,0.0,0.0,99,0.00,CLR,,0.00,WeatherDisplay:10.37,2013-08-15 11:55:00,
2013-08-15 08:00:00,62.1,59.4,30.17,SW,225,0.0,0.0,91,0.00,CLR,,0.00,WeatherDisplay:10.37,2013-08-15 12:00:00,
2013-08-15 08:05:00,66.2,59.5,30.17,SW,225,0.0,0.0,79,0.00,CLR,,0.00,WeatherDisplay:10.37,2013-08-15 12:05:00,
2013-08-15 08:10:00,68.7,59.3,30.18,SW,225,0.0,0.0,72,0.00,CLR,,0.00,WeatherDisplay:10.37,2013-08-15 12:10:00,
2013-08-15 08:15:00,70.5,59.4,30.18,East,90,1.1,0.0,68,0.00,CLR,,0.00,WeatherDisplay:10.37,2013-08-15 12:15:00,
2013-08-15 08:20:00,70.5,57.8,30.18,West,270,0.0,0.0,64,0.00,CLR,,0.00,WeatherDisplay:10.37,2013-08-15 12:20:00,
2013-08-15 08:25:00,71.8,58.1,30.18,North,0,0.0,0.0,62,0.00,CLR,,0.00,WeatherDisplay:10.37,2013-08-15 12:25:00,
2013-08-15 08:30:00,72.7,58.9,30.19,SW,225,1.1,0.0,62,0.00,CLR,,0.00,WeatherDisplay:10.37,2013-08-15 12:30:00,
2013-08-15 08:35:00,73.0,57.9,30.19,East,90,1.1,0.0,59,0.00,CLR,,0.00,WeatherDisplay:10.37,2013-08-15 12:35:00,
2013-08-15 08:40:00,73.8,58.1,30.19,South,180,1.1,0.0,58,0.00,CLR,,0.00,WeatherDisplay:10.37,2013-08-15 12:40:00,
2013-08-15 08:45:00,74.8,58.6,30.19,East,90,0.0,0.0,57,0.00,CLR,,0.00,WeatherDisplay:10.37,2013-08-15 12:45:00,
2013-08-15 08:50:00,75.9,58.1,30.19,South,180,0.0,0.0,54,0.00,CLR,,0.00,WeatherDisplay:10.37,2013-08-15 12:50:00,
2013-08-15 08:55:00,76.5,57.5,30.19,West,270,1.1,0.0,52,0.00,CLR,,0.00,WeatherDisplay:10.37,2013-08-15 12:55:00,
2013-08-15 09:00:00,76.8,56.2,30.19,East,90,1.1,0.0,49,0.00,CLR,,0.00,WeatherDisplay:10.37,2013-08-15 13:00:00,
2013-08-15 09:05:00,75.9,56.5,30.19,East,90,2.3,0.0,51,0.00,CLR,,0.00,WeatherDisplay:10.37,2013-08-15 13:05:00,
2013-08-15 09:10:00,74.8,56.6,30.19,SW,225,2.3,0.0,53,0.00,CLR,,0.00,WeatherDisplay:10.37,2013-08-15 13:10:00,
2013-08-15 09:15:00,74.8,56.6,30.19,West,270,1.1,0.0,53,0.00,CLR,,0.00,WeatherDisplay:10.37,2013-08-15 13:15:00,
2013-08-15 09:20:00,75.7,56.9,30.19,West,270,1.1,0.0,52,0.00,CLR,,0.00,WeatherDisplay:10.37,2013-08-15 13:20:00,
2013-08-15 09:25:00,75.0,55.1,30.19,West,270,1.1,1.1,50,0.00,CLR,,0.00,WeatherDisplay:10.37,2013-08-15 13:25:00,
2013-08-15 09:30:00,75.0,56.2,30.19,NW,315,1.1,0.0,52,0.00,CLR,,0.00,WeatherDisplay:10.37,2013-08-15 13:30:00,
2013-08-15 09:35:00,74.8,55.5,30.19,East,90,3.5,0.0,51,0.00,CLR,,0.00,WeatherDisplay:10.37,2013-08-15 13:35:00,
2013-08-15 09:40:00,73.2,53.5,30.19,East,90,3.5,0.0,50,0.00,CLR,,0.00,WeatherDisplay:10.37,2013-08-15 13:40:00,
2013-08-15 09:45:00,72.0,54.4,30.19,West,270,3.5,3.5,54,0.00,CLR,,0.00,WeatherDisplay:10.37,2013-08-15 13:45:00,
2013-08-15 09:50:00,72.9,55.7,30.20,SE,135,2.3,0.0,55,0.00,CLR,,0.00,WeatherDisplay:10.37,2013-08-15 13:50:00,
2013-08-15 09:55:00,72.3,54.7,30.19,East,90,3.5,3.5,54,0.00,CLR,,0.00,WeatherDisplay:10.37,2013-08-15 13:55:00,
2013-08-15 10:00:00,72.9,56.2,30.19,East,90,2.3,0.0,56,0.00,CLR,,0.00,WeatherDisplay:10.37,2013-08-15 14:00:00,
2013-08-15 10:05:00,74.1,56.9,30.19,NE,45,3.5,0.0,55,0.00,CLR,,0.00,WeatherDisplay:10.37,2013-08-15 14:05:00,
2013-08-15 10:10:00,73.6,55.4,30.19,East,90,4.6,4.6,53,0.00,CLR,,0.00,WeatherDisplay:10.37,2013-08-15 14:10:00,
2013-08-15 10:16:00,72.7,56.6,30.20,NW,315,3.5,0.0,57,0.00,CLR,,0.00,WeatherDisplay:10.37,2013-08-15 14:16:00,
2013-08-15 10:21:00,72.7,56.1,30.19,North,0,3.5,3.5,56,0.00,CLR,,0.00,WeatherDisplay:10.37,2013-08-15 14:21:00,
2013-08-15 10:26:00,71.8,55.7,30.19,SE,135,3.8,3.8,57,0.00,CLR,,0.00,WeatherDisplay:10.37,2013-08-15 14:26:00,
2013-08-15 10:31:00,72.7,56.1,30.19,NE,45,3.5,0.0,56,0.00,CLR,,0.00,WeatherDisplay:10.37,2013-08-15 14:31:00,
2013-08-15 10:36:00,73.4,55.2,30.19,East,90,4.6,4.6,53,0.00,CLR,,0.00,WeatherDisplay:10.37,2013-08-15 14:36:00,
2013-08-15 10:41:00,72.7,56.1,30.20,West,270,3.5,0.0,56,0.00,CLR,,0.00,WeatherDisplay:10.37,2013-08-15 14:41:00,
2013-08-15 10:46:00,72.6,55.5,30.20,East,94,1.0,6.0,55,0.00,CLR,,0.00,WeatherDisplay:10.37,2013-08-15 14:46:00,
2013-08-15 10:51:00,72.0,55.4,30.19,NE,45,5.8,5.8,56,0.00,CLR,,0.00,WeatherDisplay:10.37,2013-08-15 14:51:00,
2013-08-15 10:56:00,73.0,55.9,30.19,SW,225,2.3,0.0,55,0.00,CLR,,0.00,WeatherDisplay:10.37,2013-08-15 14:56:00,
2013-08-15 11:01:00,74.4,56.7,30.19,East,88,1.0,5.0,54,0.00,CLR,,0.00,WeatherDisplay:10.37,2013-08-15 15:01:00,
2013-08-15 11:06:00,75.0,54.6,30.19,SW,225,1.1,0.0,49,0.00,CLR,,0.00,WeatherDisplay:10.37,2013-08-15 15:06:00,
2013-08-15 11:11:00,75.6,55.1,30.19,NW,315,2.3,0.0,49,0.00,CLR,,0.00,WeatherDisplay:10.37,2013-08-15 15:11:00,
2013-08-15 11:16:00,76.3,55.1,30.19,SW,225,2.3,2.3,48,0.00,CLR,,0.00,WeatherDisplay:10.37,2013-08-15 15:16:00,
2013-08-15 11:21:00,76.1,50.7,30.19,North,0,5.8,5.8,41,0.00,CLR,,0.00,WeatherDisplay:10.37,2013-08-15 15:21:00,
2013-08-15 11:27:00,76.3,52.1,30.19,SW,225,1.1,0.0,43,0.00,CLR,,0.00,WeatherDisplay:10.37,2013-08-15 15:27:00,
2013-08-15 11:32:00,76.5,51.0,30.19,NW,315,4.6,0.0,41,0.00,CLR,,0.00,WeatherDisplay:10.37,2013-08-15 15:32:00,
2013-08-15 11:37:00,77.0,50.8,30.19,North,0,3.5,3.5,40,0.00,CLR,,0.00,WeatherDisplay:10.37,2013-08-15 15:37:00,
2013-08-15 11:42:00,76.5,50.3,30.19,East,90,3.5,3.5,40,0.00,CLR,,0.00,WeatherDisplay:10.37,2013-08-15 15:42:00,
2013-08-15 11:47:00,77.4,52.5,30.18,West,270,1.1,0.0,42,0.00,CLR,,0.00,WeatherDisplay:10.37,2013-08-15 15:47:00,
2013-08-15 11:52:00,78.3,51.3,30.18,West,270,1.1,0.0,39,0.00,CLR,,0.00,WeatherDisplay:10.37,2013-08-15 15:52:00,
2013-08-15 11:57:00,78.3,49.8,30.19,East,90,3.5,3.5,37,0.00,CLR,,0.00,WeatherDisplay:10.37,2013-08-15 15:57:00,
2013-08-15 12:02:00,78.1,47.4,30.19,East,90,2.3,3.1,34,0.00,CLR,,0.00,WeatherDisplay:10.37,2013-08-15 16:02:00,
2013-08-15 12:07:00,76.3,46.6,30.18,East,90,5.8,5.8,35,0.00,CLR,,0.00,WeatherDisplay:10.37,2013-08-15 16:07:00,
2013-08-15 12:12:00,75.2,47.1,30.18,East,90,3.5,3.5,37,0.00,CLR,,0.00,WeatherDisplay:10.37,2013-08-15 16:12:00,
2013-08-15 12:17:00,75.6,50.2,30.18,West,270,2.3,2.3,41,0.00,CLR,,0.00,WeatherDisplay:10.37,2013-08-15 16:17:00,
2013-08-15 12:22:00,76.5,48.2,30.18,NW,315,3.5,3.5,37,0.00,CLR,,0.00,WeatherDisplay:10.37,2013-08-15 16:22:00,
2013-08-15 12:27:00,76.8,48.6,30.17,NW,315,3.5,3.5,37,0.00,CLR,,0.00,WeatherDisplay:10.37,2013-08-15 16:27:00,
2013-08-15 12:32:00,76.8,48.6,30.17,West,270,3.5,3.5,37,0.00,CLR,,0.00,WeatherDisplay:10.37,2013-08-15 16:32:00,
2013-08-15 12:37:00,77.4,49.0,30.17,SW,225,1.1,0.0,37,0.00,CLR,,0.00,WeatherDisplay:10.37,2013-08-15 16:37:00,
2013-08-15 12:42:00,78.8,48.8,30.17,NE,45,2.3,0.0,35,0.00,CLR,,0.00,WeatherDisplay:10.37,2013-08-15 16:42:00,
2013-08-15 12:47:00,77.4,48.3,30.17,West,270,3.5,0.0,36,0.00,CLR,,0.00,WeatherDisplay:10.37,2013-08-15 16:47:00,
2013-08-15 12:52:00,77.5,48.5,30.17,North,0,3.5,3.5,36,0.00,CLR,,0.00,WeatherDisplay:10.37,2013-08-15 16:52:00,
2013-08-15 12:57:00,77.4,47.6,30.17,East,90,3.5,3.5,35,0.00,CLR,,0.00,WeatherDisplay:10.37,2013-08-15 16:57:00,
2013-08-15 13:02:00,76.5,46.8,30.16,NW,315,3.5,0.0,35,0.00,CLR,,0.00,WeatherDisplay:10.37,2013-08-15 17:02:00,
2013-08-15 13:08:00,76.8,47.8,30.16,West,270,3.5,3.5,36,0.00,CLR,,0.00,WeatherDisplay:10.37,2013-08-15 17:08:00,
2013-08-15 13:13:00,76.5,48.2,30.16,West,270,2.3,0.0,37,0.00,CLR,,0.00,WeatherDisplay:10.37,2013-08-15 17:13:00,
2013-08-15 13:18:00,77.4,49.0,30.16,West,270,1.1,1.1,37,0.00,CLR,,0.00,WeatherDisplay:10.37,2013-08-15 17:18:00,
2013-08-15 13:23:00,77.7,48.6,30.16,SE,135,2.3,0.0,36,0.00,CLR,,0.00,WeatherDisplay:10.37,2013-08-15 17:23:00,
2013-08-15 13:28:00,78.3,50.6,30.15,SE,135,2.3,2.3,38,0.00,CLR,,0.00,WeatherDisplay:10.37,2013-08-15 17:28:00,
2013-08-15 13:33:00,79.2,49.1,30.15,NW,315,1.1,0.0,35,0.00,CLR,,0.00,WeatherDisplay:10.37,2013-08-15 17:33:00,
2013-08-15 13:38:00,80.1,49.2,30.15,West,270,1.1,0.0,34,0.00,CLR,,0.00,WeatherDisplay:10.37,2013-08-15 17:38:00,
2013-08-15 13:44:00,80.2,48.5,30.15,West,270,1.1,0.0,33,0.00,CLR,,0.00,WeatherDisplay:10.37,2013-08-15 17:44:00,
2013-08-15 13:49:00,78.8,44.7,30.15,North,0,4.6,4.6,30,0.00,CLR,,0.00,WeatherDisplay:10.37,2013-08-15 17:49:00,
2013-08-15 13:54:00,78.1,47.4,30.15,West,270,2.3,0.0,34,0.00,CLR,,0.00,WeatherDisplay:10.37,2013-08-15 17:54:00,
2013-08-15 13:59:00,78.1,47.4,30.14,SW,225,3.5,0.0,34,0.00,CLR,,0.00,WeatherDisplay:10.37,2013-08-15 17:59:00,
2013-08-15 14:04:00,78.1,48.9,30.14,SW,225,2.3,2.3,36,0.00,CLR,,0.00,WeatherDisplay:10.37,2013-08-15 18:04:00,
2013-08-15 14:09:00,78.1,48.9,30.14,NW,315,2.3,0.0,36,0.00,CLR,,0.00,WeatherDisplay:10.37,2013-08-15 18:09:00,
2013-08-15 14:14:00,79.0,48.2,30.14,North,0,1.1,0.0,34,0.00,CLR,,0.00,WeatherDisplay:10.37,2013-08-15 18:14:00,
2013-08-15 14:19:00,79.2,48.4,30.14,West,270,3.5,3.5,34,0.00,CLR,,0.00,WeatherDisplay:10.37,2013-08-15 18:19:00,
2013-08-15 14:24:00,78.4,46.1,30.14,SW,225,2.3,2.3,32,0.00,CLR,,0.00,WeatherDisplay:10.37,2013-08-15 18:24:00,
2013-08-15 14:30:00,78.6,47.1,30.13,SW,225,1.1,0.0,33,0.00,CLR,,0.00,WeatherDisplay:10.37,2013-08-15 18:30:00,
2013-08-15 14:35:00,78.3,45.1,30.13,SW,225,2.3,2.3,31,0.00,CLR,,0.00,WeatherDisplay:10.37,2013-08-15 18:35:00,
2013-08-15 14:40:00,78.3,45.1,30.14,East,90,6.9,6.9,31,0.00,CLR,,0.00,WeatherDisplay:10.37,2013-08-15 18:40:00,
2013-08-15 14:45:00,77.7,47.1,30.13,SW,225,2.3,0.0,34,0.00,CLR,,0.00,WeatherDisplay:10.37,2013-08-15 18:45:00,
2013-08-15 14:50:00,79.3,50.1,30.13,West,270,0.0,0.0,36,0.00,CLR,,0.00,WeatherDisplay:10.37,2013-08-15 18:50:00,
2013-08-15 14:57:00,80.6,48.0,30.13,SW,225,3.5,3.5,32,0.00,CLR,,0.00,WeatherDisplay:10.37,2013-08-15 18:57:00,
2013-08-15 15:02:00,79.9,46.5,30.13,West,270,3.5,3.5,31,0.00,CLR,,0.00,WeatherDisplay:10.37,2013-08-15 19:02:00,
2013-08-15 15:07:00,79.7,48.8,30.12,North,0,3.5,3.5,34,0.00,CLR,,0.00,WeatherDisplay:10.37,2013-08-15 19:07:00,
2013-08-15 15:12:00,80.1,48.4,30.12,SSW,202,2.3,0.0,33,0.00,CLR,,0.00,WeatherDisplay:10.37,2013-08-15 19:12:00,
2013-08-15 15:17:00,79.2,45.9,30.12,NE,45,3.5,3.5,31,0.00,CLR,,0.00,WeatherDisplay:10.37,2013-08-15 19:17:00,
2013-08-15 15:23:00,79.3,46.9,30.12,East,90,3.5,3.5,32,0.00,CLR,,0.00,WeatherDisplay:10.37,2013-08-15 19:23:00,
2013-08-15 15:28:00,79.2,48.4,30.11,West,270,1.1,0.0,34,0.00,CLR,,0.00,WeatherDisplay:10.37,2013-08-15 19:28:00,
2013-08-15 15:33:00,79.3,48.5,30.11,East,90,2.3,2.3,34,0.00,CLR,,0.00,WeatherDisplay:10.37,2013-08-15 19:33:00,
2013-08-15 15:38:00,78.4,47.7,30.11,North,0,3.5,3.5,34,0.00,CLR,,0.00,WeatherDisplay:10.37,2013-08-15 19:38:00,
2013-08-15 15:43:00,78.1,48.2,30.11,East,90,3.8,3.8,35,0.00,CLR,,0.00,WeatherDisplay:10.37,2013-08-15 19:43:00,
2013-08-15 15:48:00,77.5,48.5,30.11,SE,135,3.5,3.5,36,0.00,CLR,,0.00,WeatherDisplay:10.37,2013-08-15 19:48:00,
2013-08-15 15:53:00,78.1,48.2,30.11,SW,225,3.5,3.5,35,0.00,CLR,,0.00,WeatherDisplay:10.37,2013-08-15 19:53:00,
2013-08-15 15:59:00,78.1,48.9,30.11,SW,225,3.5,0.0,36,0.00,CLR,,0.00,WeatherDisplay:10.37,2013-08-15 19:59:00,
2013-08-15 16:04:00,78.6,49.4,30.10,West,270,2.3,0.0,36,0.00,CLR,,0.00,WeatherDisplay:10.37,2013-08-15 20:04:00,
2013-08-15 16:09:00,78.6,50.9,30.10,SW,225,2.3,2.3,38,0.00,CLR,,0.00,WeatherDisplay:10.37,2013-08-15 20:09:00,
2013-08-15 16:14:00,78.4,50.7,30.10,East,90,2.3,2.3,38,0.00,CLR,,0.00,WeatherDisplay:10.37,2013-08-15 20:14:00,
2013-08-15 16:19:00,78.3,48.4,30.10,SE,135,1.1,1.1,35,0.00,CLR,,0.00,WeatherDisplay:10.37,2013-08-15 20:19:00,
2013-08-15 16:24:00,78.6,48.7,30.09,SW,225,3.5,3.5,35,0.00,CLR,,0.00,WeatherDisplay:10.37,2013-08-15 20:24:00,
2013-08-15 16:30:00,78.1,47.4,30.09,NE,45,3.5,3.5,34,0.00,CLR,,0.00,WeatherDisplay:10.37,2013-08-15 20:30:00,
2013-08-15 16:35:00,77.5,47.7,30.09,East,90,2.3,0.0,35,0.00,CLR,,0.00,WeatherDisplay:10.37,2013-08-15 20:35:00,
2013-08-15 16:40:00,77.4,49.0,30.09,South,180,3.5,0.0,37,0.00,CLR,,0.00,WeatherDisplay:10.37,2013-08-15 20:40:00,
2013-08-15 16:45:00,77.0,49.4,30.09,SW,225,5.8,0.0,38,0.00,CLR,,0.00,WeatherDisplay:10.37,2013-08-15 20:45:00,
2013-08-15 16:50:00,76.3,48.8,30.10,West,270,2.3,2.3,38,0.00,CLR,,0.00,WeatherDisplay:10.37,2013-08-15 20:50:00,
2013-08-15 16:55:00,75.6,48.2,30.09,SW,225,2.3,0.0,38,0.00,CLR,,0.00,WeatherDisplay:10.37,2013-08-15 20:55:00,
2013-08-15 17:01:00,75.4,49.4,30.10,WSW,243,1.0,4.0,40,0.00,CLR,,0.00,WeatherDisplay:10.37,2013-08-15 21:01:00,
2013-08-15 17:06:00,75.4,48.7,30.10,West,270,3.5,3.5,39,0.00,CLR,,0.00,WeatherDisplay:10.37,2013-08-15 21:06:00,
2013-08-15 17:11:00,75.4,48.7,30.10,West,270,3.5,3.5,39,0.00,CLR,,0.00,WeatherDisplay:10.37,2013-08-15 21:11:00,
2013-08-15 17:16:00,75.4,48.7,30.10,West,270,3.5,3.5,39,0.00,CLR,,0.00,WeatherDisplay:10.37,2013-08-15 21:16:00,
2013-08-15 17:21:00,75.4,48.7,30.10,West,270,3.5,3.5,39,0.00,CLR,,0.00,WeatherDisplay:10.37,2013-08-15 21:21:00,
2013-08-15 17:27:00,75.4,48.7,30.10,West,270,3.5,3.5,39,0.00,CLR,,0.00,WeatherDisplay:10.37,2013-08-15 21:27:00,
2013-08-15 17:32:00,75.4,48.7,30.10,West,270,3.5,3.5,39,0.00,CLR,,0.00,WeatherDisplay:10.37,2013-08-15 21:32:00,
2013-08-15 17:38:00,75.4,48.7,30.10,West,270,3.5,3.5,39,0.00,CLR,,0.00,WeatherDisplay:10.37,2013-08-15 21:38:00,
2013-08-15 17:43:00,75.4,48.7,30.10,West,270,3.5,3.5,39,0.00,CLR,,0.00,WeatherDisplay:10.37,2013-08-15 21:43:00,
2013-08-15 17:48:00,75.4,48.7,30.10,West,270,3.5,3.5,39,0.00,CLR,,0.00,WeatherDisplay:10.37,2013-08-15 21:48:00,
2013-08-15 17:53:00,75.4,48.7,30.10,West,270,3.5,3.5,39,0.00,CLR,,0.00,WeatherDisplay:10.37,2013-08-15 21:53:00,
2013-08-15 17:58:00,75.4,48.7,30.10,West,270,3.5,3.5,39,0.00,CLR,,0.00,WeatherDisplay:10.37,2013-08-15 21:58:00,
2013-08-15 18:03:00,75.4,48.7,30.10,West,270,3.5,3.5,39,0.00,CLR,,0.00,WeatherDisplay:10.37,2013-08-15 22:03:00,
2013-08-15 18:08:00,75.4,48.7,30.10,West,270,3.5,3.5,39,0.00,CLR,,0.00,WeatherDisplay:10.37,2013-08-15 22:08:00,
2013-08-15 18:13:00,75.4,48.7,30.10,West,270,3.5,3.5,39,0.00,CLR,,0.00,WeatherDisplay:10.37,2013-08-15 22:13:00,
2013-08-15 18:18:00,75.4,48.7,30.10,West,270,3.5,3.5,39,0.00,CLR,,0.00,WeatherDisplay:10.37,2013-08-15 22:18:00,
2013-08-15 18:23:00,75.4,48.7,30.10,West,270,3.5,3.5,39,0.00,CLR,,0.00,WeatherDisplay:10.37,2013-08-15 22:23:00,
2013-08-15 18:28:00,75.4,48.7,30.10,West,270,3.5,3.5,39,0.00,CLR,,0.00,WeatherDisplay:10.37,2013-08-15 22:28:00,
2013-08-15 18:33:00,75.4,48.7,30.10,West,270,3.5,3.5,39,0.00,CLR,,0.00,WeatherDisplay:10.37,2013-08-15 22:33:00,
2013-08-15 18:38:00,75.4,48.7,30.10,West,270,3.5,3.5,39,0.00,CLR,,0.00,WeatherDisplay:10.37,2013-08-15 22:38:00,
2013-08-15 18:43:00,75.4,48.7,30.10,West,270,3.5,3.5,39,0.00,CLR,,0.00,WeatherDisplay:10.37,2013-08-15 22:43:00,
2013-08-15 18:49:00,75.4,48.7,30.10,West,270,3.5,3.5,39,0.00,CLR,,0.00,WeatherDisplay:10.37,2013-08-15 22:49:00,
2013-08-15 18:54:00,75.4,48.7,30.10,West,270,3.5,3.5,39,0.00,CLR,,0.00,WeatherDisplay:10.37,2013-08-15 22:54:00,
2013-08-15 18:59:00,75.4,48.7,30.10,West,270,3.5,3.5,39,0.00,CLR,,0.00,WeatherDisplay:10.37,2013-08-15 22:59:00,
2013-08-15 19:04:00,75.4,48.7,30.10,West,270,3.5,3.5,39,0.00,CLR,,0.00,WeatherDisplay:10.37,2013-08-15 23:04:00,
2013-08-15 19:09:00,75.4,48.7,30.10,West,270,3.5,3.5,39,0.00,CLR,,0.00,WeatherDisplay:10.37,2013-08-15 23:09:00,
2013-08-15 19:14:00,75.4,48.7,30.10,West,270,3.5,3.5,39,0.00,CLR,,0.00,WeatherDisplay:10.37,2013-08-15 23:14:00,
2013-08-15 19:19:00,75.4,48.7,30.10,West,270,3.5,3.5,39,0.00,CLR,,0.00,WeatherDisplay:10.37,2013-08-15 23:19:00,
2013-08-15 19:24:00,75.4,48.7,30.10,West,270,3.5,3.5,39,0.00,CLR,,0.00,WeatherDisplay:10.37,2013-08-15 23:24:00,
2013-08-15 19:29:00,75.4,48.7,30.10,West,270,3.5,3.5,39,0.00,CLR,,0.00,WeatherDisplay:10.37,2013-08-15 23:29:00,
2013-08-15 19:34:00,75.4,48.7,30.10,West,270,3.5,3.5,39,0.00,CLR,,0.00,WeatherDisplay:10.37,2013-08-15 23:34:00,
2013-08-15 19:39:00,75.4,48.7,30.10,West,270,3.5,3.5,39,0.00,CLR,,0.00,WeatherDisplay:10.37,2013-08-15 23:39:00,
2013-08-15 19:44:00,75.4,48.7,30.10,West,270,3.5,3.5,39,0.00,CLR,,0.00,WeatherDisplay:10.37,2013-08-15 23:44:00,
2013-08-15 19:49:00,75.4,48.7,30.10,West,270,3.5,3.5,39,0.00,CLR,,0.00,WeatherDisplay:10.37,2013-08-15 23:49:00,
2013-08-15 19:54:00,75.4,48.7,30.10,West,270,3.5,3.5,39,0.00,CLR,,0.00,WeatherDisplay:10.37,2013-08-15 23:54:00,
2013-08-15 20:00:00,75.4,48.7,30.10,West,270,3.5,3.5,39,0.00,CLR,,0.00,WeatherDisplay:10.37,2013-08-16 00:00:00,
2013-08-15 20:05:00,75.4,48.7,30.10,West,270,3.5,3.5,39,0.00,CLR,,0.00,WeatherDisplay:10.37,2013-08-16 00:05:00,
2013-08-15 20:10:00,75.4,48.7,30.10,West,270,3.5,3.5,39,0.00,CLR,,0.00,WeatherDisplay:10.37,2013-08-16 00:10:00,
2013-08-15 20:15:00,75.4,48.7,30.10,West,270,3.5,3.5,39,0.00,CLR,,0.00,WeatherDisplay:10.37,2013-08-16 00:15:00,
2013-08-15 20:20:00,75.4,48.7,30.10,West,270,3.5,3.5,39,0.00,CLR,,0.00,WeatherDisplay:10.37,2013-08-16 00:20:00,
2013-08-15 20:25:00,75.4,48.7,30.10,West,270,3.5,3.5,39,0.00,CLR,,0.00,WeatherDisplay:10.37,2013-08-16 00:25:00,
2013-08-15 20:30:00,75.4,48.7,30.10,West,270,3.5,3.5,39,0.00,CLR,,0.00,WeatherDisplay:10.37,2013-08-16 00:30:00,
2013-08-15 20:35:00,75.4,48.7,30.10,West,270,3.5,3.5,39,0.00,CLR,,0.00,WeatherDisplay:10.37,2013-08-16 00:35:00,
2013-08-15 20:40:00,75.4,48.7,30.10,West,270,3.5,3.5,39,0.00,CLR,,0.00,WeatherDisplay:10.37,2013-08-16 00:40:00,
2013-08-15 20:45:00,75.4,48.7,30.10,West,270,3.5,3.5,39,0.00,CLR,,0.00,WeatherDisplay:10.37,2013-08-16 00:45:00,
2013-08-15 20:50:00,75.4,48.7,30.10,West,270,3.5,3.5,39,0.00,CLR,,0.00,WeatherDisplay:10.37,2013-08-16 00:50:00,
2013-08-15 20:55:00,75.4,48.7,30.10,West,270,3.5,3.5,39,0.00,CLR,,0.00,WeatherDisplay:10.37,2013-08-16 00:55:00,
2013-08-15 21:00:00,75.4,48.7,30.10,West,270,3.5,3.5,39,0.00,CLR,,0.00,WeatherDisplay:10.37,2013-08-16 01:00:00,
2013-08-15 21:06:00,75.4,48.7,30.10,West,270,3.5,3.5,39,0.00,CLR,,0.00,WeatherDisplay:10.37,2013-08-16 01:06:00,
2013-08-15 21:11:00,75.4,48.7,30.10,West,270,3.5,3.5,39,0.00,CLR,,0.00,WeatherDisplay:10.37,2013-08-16 01:11:00,
2013-08-15 21:16:00,75.4,48.7,30.10,West,270,1.0,3.0,39,0.00,CLR,,0.00,WeatherDisplay:10.37,2013-08-16 01:16:00,
2013-08-15 21:21:00,75.4,48.7,30.10,West,270,1.0,3.0,39,0.00,CLR,,0.00,WeatherDisplay:10.37,2013-08-16 01:21:00,
2013-08-15 21:26:00,75.4,48.7,30.10,West,270,3.5,3.5,39,0.00,CLR,,0.00,WeatherDisplay:10.37,2013-08-16 01:26:00,
2013-08-15 21:31:00,75.4,48.7,30.10,West,270,1.0,3.0,39,0.00,CLR,,0.00,WeatherDisplay:10.37,2013-08-16 01:31:00,
2013-08-15 21:36:00,75.4,48.7,30.10,West,270,3.5,3.5,39,0.00,CLR,,0.00,WeatherDisplay:10.37,2013-08-16 01:36:00,
2013-08-15 21:41:00,75.4,48.7,30.10,West,270,3.5,3.5,39,0.00,CLR,,0.00,WeatherDisplay:10.37,2013-08-16 01:41:00,
2013-08-15 21:47:00,75.4,48.7,30.10,West,270,3.5,3.5,39,0.00,CLR,,0.00,WeatherDisplay:10.37,2013-08-16 01:47:00,
2013-08-15 21:52:00,75.4,48.7,30.10,West,270,3.5,3.5,39,0.00,CLR,,0.00,WeatherDisplay:10.37,2013-08-16 01:52:00,
2013-08-15 21:57:00,75.4,48.7,30.10,West,270,3.5,3.5,39,0.00,CLR,,0.00,WeatherDisplay:10.37,2013-08-16 01:57:00,
2013-08-15 22:02:00,75.4,48.7,30.10,West,270,3.5,3.5,39,0.00,CLR,,0.00,WeatherDisplay:10.37,2013-08-16 02:02:00,
2013-08-15 22:07:00,75.4,48.7,30.10,West,270,3.5,3.5,39,0.00,CLR,,0.00,WeatherDisplay:10.37,2013-08-16 02:07:00,
2013-08-15 22:12:00,75.4,48.7,30.10,West,270,3.5,3.5,39,0.00,CLR,,0.00,WeatherDisplay:10.37,2013-08-16 02:12:00,
2013-08-15 22:17:00,75.4,48.7,30.10,West,270,3.5,3.5,39,0.00,CLR,,0.00,WeatherDisplay:10.37,2013-08-16 02:17:00,
2013-08-15 22:22:00,75.4,48.7,30.10,West,270,3.5,3.5,39,0.00,CLR,,0.00,WeatherDisplay:10.37,2013-08-16 02:22:00,
2013-08-15 22:27:00,75.4,48.7,30.10,West,270,3.5,3.5,39,0.00,CLR,,0.00,WeatherDisplay:10.37,2013-08-16 02:27:00,
2013-08-15 22:32:00,75.4,48.7,30.10,West,270,3.5,3.5,39,0.00,CLR,,0.00,WeatherDisplay:10.37,2013-08-16 02:32:00,
2013-08-15 22:37:00,75.4,48.7,30.10,West,270,3.5,3.5,39,0.00,CLR,,0.00,WeatherDisplay:10.37,2013-08-16 02:37:00,
2013-08-15 22:43:00,75.4,48.7,30.10,West,270,3.5,3.5,39,0.00,CLR,,0.00,WeatherDisplay:10.37,2013-08-16 02:43:00,
2013-08-15 22:48:00,75.4,48.7,30.10,West,270,3.5,3.5,39,0.00,CLR,,0.00,WeatherDisplay:10.37,2013-08-16 02:48:00,
2013-08-15 22:53:00,75.4,48.7,30.10,West,270,3.5,3.5,39,0.00,CLR,,0.00,WeatherDisplay:10.37,2013-08-16 02:53:00,
2013-08-15 22:58:00,75.4,48.7,30.10,West,270,3.5,3.5,39,0.00,CLR,,0.00,WeatherDisplay:10.37,2013-08-16 02:58:00,
2013-08-15 23:03:00,75.4,48.7,30.10,West,270,3.5,3.5,39,0.00,FEW,,0.00,WeatherDisplay:10.37,2013-08-16 03:03:00,
2013-08-15 23:08:00,75.4,48.7,30.10,West,270,3.5,3.5,39,0.00,FEW,,0.00,WeatherDisplay:10.37,2013-08-16 03:08:00,
2013-08-15 23:13:00,75.4,48.7,30.10,West,270,3.5,3.5,39,0.00,FEW,,0.00,WeatherDisplay:10.37,2013-08-16 03:13:00,
2013-08-15 23:18:00,75.4,48.7,30.10,West,270,3.5,3.5,39,0.00,FEW,,0.00,WeatherDisplay:10.37,2013-08-16 03:18:00,
2013-08-15 23:23:00,75.4,48.7,30.10,West,270,3.5,3.5,39,0.00,FEW,,0.00,WeatherDisplay:10.37,2013-08-16 03:23:00,
2013-08-15 23:28:00,75.4,48.7,30.10,West,270,3.5,3.5,39,0.00,FEW,,0.00,WeatherDisplay:10.37,2013-08-16 03:28:00,
2013-08-15 23:33:00,75.4,48.7,30.10,West,270,3.5,3.5,39,0.00,FEW,,0.00,WeatherDisplay:10.37,2013-08-16 03:33:00,
2013-08-15 23:38:00,75.4,48.7,30.10,West,270,3.5,3.5,39,0.00,FEW,,0.00,WeatherDisplay:10.37,2013-08-16 03:38:00,
2013-08-15 23:43:00,75.4,48.7,30.10,West,270,3.5,3.5,39,0.00,FEW,,0.00,WeatherDisplay:10.37,2013-08-16 03:43:00,
2013-08-15 23:48:00,75.4,48.7,30.10,West,270,3.5,3.5,39,0.00,FEW,,0.00,WeatherDisplay:10.37,2013-08-16 03:48:00,
2013-08-15 23:53:00,75.4,48.7,30.10,West,270,3.5,3.5,39,0.00,FEW,,0.00,WeatherDisplay:10.37,2013-08-16 03:53:00,
2013-08-15 23:58:00,75.4,48.7,30.10,West,270,3.5,3.5,39,0.00,FEW,,0.00,WeatherDisplay:10.37,2013-08-16 03:58:00,